TimeCST,TemperatureF,Dew PointF,Humidity,Sea Level PressureIn,VisibilityMPH,Wind Direction,Wind SpeedMPH,Gust SpeedMPH,PrecipitationIn,Events,Conditions,WindDirDegrees,DateUTC
12:56 AM,39.9,29.1,65,30.39,10.0,North,3.5,-,N/A,,Clear,10,2012-11-17 06:56:00
1:56 AM,36.0,29.1,76,30.40,10.0,North,3.5,-,N/A,,Clear,10,2012-11-17 07:56:00
2:56 AM,37.9,29.1,71,30.40,10.0,NNE,4.6,-,N/A,,Clear,30,2012-11-17 08:56:00
3:56 AM,34.0,29.1,82,30.40,10.0,NNE,3.5,-,N/A,,Clear,30,2012-11-17 09:56:00
4:56 AM,32.9,29.1,86,30.41,10.0,ENE,4.6,-,N/A,,Clear,60,2012-11-17 10:56:00
5:56 AM,31.1,29.1,92,30.43,10.0,NNE,3.5,-,N/A,,Clear,30,2012-11-17 11:56:00
6:56 AM,31.1,29.1,92,30.45,8.0,East,3.5,-,N/A,,Clear,80,2012-11-17 12:56:00
7:56 AM,43.0,32.0,65,30.47,10.0,ENE,3.5,-,N/A,,Clear,70,2012-11-17 13:56:00
8:56 AM,52.0,34.9,52,30.48,10.0,Variable,6.9,-,N/A,,Clear,0,2012-11-17 14:56:00
9:56 AM,54.9,31.1,40,30.48,10.0,SE,10.4,18.4,N/A,,Clear,140,2012-11-17 15:56:00
11:56 AM,59.9,32.0,35,30.44,10.0,Variable,3.5,-,N/A,,Clear,0,2012-11-17 17:56:00
12:56 PM,61.0,32.0,34,30.42,10.0,Variable,4.6,-,N/A,,Clear,0,2012-11-17 18:56:00
1:56 PM,63.0,30.0,29,30.40,10.0,Variable,5.8,-,N/A,,Clear,0,2012-11-17 19:56:00
2:56 PM,61.9,31.1,31,30.39,10.0,Variable,5.8,-,N/A,,Clear,0,2012-11-17 20:56:00
3:56 PM,59.9,32.0,35,30.40,10.0,NNE,4.6,-,N/A,,Clear,30,2012-11-17 21:56:00
4:56 PM,52.9,32.9,47,30.39,10.0,NNE,3.5,-,N/A,,Clear,20,2012-11-17 22:56:00
5:56 PM,45.9,34.9,66,30.41,10.0,North,3.5,-,N/A,,Clear,10,2012-11-17 23:56:00
6:56 PM,41.0,34.9,79,30.41,10.0,Calm,Calm,-,N/A,,Clear,0,2012-11-18 00:56:00
7:56 PM,37.9,34.0,86,30.42,10.0,Calm,Calm,-,N/A,,Clear,0,2012-11-18 01:56:00
8:56 PM,36.0,32.9,89,30.41,10.0,Calm,Calm,-,N/A,,Clear,0,2012-11-18 02:56:00
9:56 PM,34.9,32.9,92,30.42,10.0,Calm,Calm,-,N/A,,Clear,0,2012-11-18 03:56:00
10:56 PM,32.9,32.0,96,30.42,10.0,Calm,Calm,-,N/A,,Clear,0,2012-11-18 04:56:00
11:56 PM,32.9,32.0,96,30.42,10.0,Calm,Calm,-,N/A,,Clear,0,2012-11-18 05:56:00